Location: Augsburg
(48.3836°N, 10.8929°E)
Time: 14:11:12
(UTC+02:00)

ISS - Pass Details

Date: 10 January 2018
Orbit: 402 x 409 km, 51.6° (Epoch: 21 August)

Event Time Altitude Azimuth Distance (km) Brightness Sun altitude
Exits shadow 05:11:08 20° 76° (ENE) 1,048 -1.1 -28.2°
Drops below altitude 10° 05:12:22 10° 84° (E) 1,512 0.0 -27.9°
Enters shadow 06:08:02 -70° 288° (WNW) 12,404 3.7 -18.8°
Maximum altitude 06:45:52 67° 207° (SSW) 462 -3.6 -12.7°
